QPF
0.00 0.00 0.00 0.00 0.00 0.00 0.00 0.00 0.00 0.00 0.00 0.00 0.00 0.00 0.00 0.00 0.00 0.00 0.00 0.00 0.00 0.00 0.00 0.00 0.00 0.00 0.00 0.00 0.00 0.00 0.00 0.00
0.00 0.00 0.00 0.00 0.00 0.00 0.00 0.00 0.00 0.00 0.00 0.00 0.00 0.00 0.00 0.00 0.00 0.00 0.00 0.00 0.00 0.00 0.00 0.00 0.00 0.00 0.00 0.00 0.00 0.00 0.00 0.00
0.00 0.00 0.00 0.00 0.00 0.00 0.00 0.00 0.00 0.00 0.00 0.00 0.00 0.00 0.00 0.00 0.00 0.00 0.00 0.00 0.00 0.00 0.00 0.00 0.00 0.00 0.00 0.00 0.00 0.00 0.00 0.00
0.00 0.00 0.00 0.00 0.00 0.00 0.00 0.00 0.00 0.00 0.00 0.00 0.00 0.00 0.00 0.00 0.00 0.00 0.00 0.00 0.02 0.04 0.06 0.06 0.03 0.01 0.01 0.00 0.00 0.00 0.00 0.00
0.00 0.00 0.00 0.00 0.00 0.00 0.00 0.00 0.00 0.00 0.00 0.00 0.00 0.00 0.00 0.00 0.00 0.00 0.00 0.01 0.02 0.04 0.11 0.09 0.04 0.02 0.03 0.02 0.02 0.00 0.00 0.00
0.00 0.00 0.00 0.00 0.00 0.00 0.00 0.00 0.00 0.00 0.00 0.00 0.00 0.00 0.00 0.00 0.00 0.00 0.00 0.00 0.03 0.07 0.11 0.08 0.04 0.01 0.01 0.01 0.01 0.01 0.00 0.00
0.00 0.00 0.00 0.00 0.00 0.00 0.00 0.00 0.00 0.00 0.00 0.00 0.00 0.00 0.00 0.00 0.00 0.00 0.00 0.02 0.04 0.06 0.04 0.03 0.01 0.00 0.00 0.01 0.01 0.01 0.01 0.00
0.00 0.00 0.00 0.00 0.00 0.00 0.00 0.00 0.00 0.00 0.00 0.00 0.00 0.00 0.00 0.00 0.00 0.00 0.00 0.06 0.07 0.07 0.04 0.01 0.00 0.00 0.00 0.01 0.00 0.00 0.00 0.01
0.00 0.00 0.00 0.00 0.00 0.00 0.00 0.00 0.00 0.00 0.00 0.00 0.00 0.00 0.00 0.00 0.00 0.00 0.00 0.01 0.01 0.03 0.05 0.02 0.00 0.00 0.00 0.00 0.00 0.00 0.00 0.00
0.00 0.00 0.00 0.00 0.00 0.00 0.00 0.00 0.00 0.00 0.00 0.00 0.00 0.00 0.00 0.00 0.00 0.00 0.00 0.00 0.01 0.01 0.03 0.01 0.00 0.00 0.00 0.00 0.00 0.00 0.00 0.00
0.00 0.00 0.00 0.00 0.00 0.00 0.00 0.00 0.00 0.00 0.00 0.00 0.00 0.00 0.00 0.00 0.00 0.00 0.00 0.00 0.02 0.01 0.00 0.01 0.00 0.00 0.00 0.00 0.00 0.01 0.00 0.04
0.00 0.00 0.00 0.00 0.00 0.00 0.00 0.00 0.00 0.00 0.00 0.00 0.00 0.00 0.00 0.00 0.00 0.00 0.00 0.00 0.00 0.01 0.00 0.00 0.00 0.00 0.00 0.01 0.02 0.01 0.01 0.05
0.00 0.00 0.00 0.00 0.00 0.00 0.00 0.00 0.00 0.00 0.00 0.00 0.00 0.00 0.00 0.00 0.00 0.00 0.00 0.00 0.00 0.00 0.00 0.00 0.00 0.00 0.02 0.05 0.08 0.05 0.03 0.01
0.00 0.00 0.00 0.00 0.00 0.00 0.00 0.00 0.00 0.00 0.00 0.00 0.00 0.00 0.00 0.00 0.00 0.00 0.00 0.00 0.00 0.00 0.00 0.00 0.00 0.00 0.00 0.02 0.04 0.03 0.03 0.02
0.00 0.00 0.00 0.00 0.00 0.00 0.00 0.00 0.00 0.00 0.00 0.00 0.00 0.00 0.00 0.00 0.00 0.00 0.00 0.00 0.00 0.00 0.00 0.00 0.00 0.00 0.00 0.00 0.00 0.01 0.01 0.00
0.00 0.00 0.00 0.00 0.00 0.00 0.00 0.00 0.00 0.00 0.00 0.00 0.00 0.00 0.00 0.00 0.00 0.00 0.00 0.00 0.00 0.00 0.00 0.00 0.00 0.00 0.00 0.00 0.00 0.00 0.00 0.01
0.00 0.00 0.00 0.00 0.00 0.00 0.00 0.00 0.00 0.00 0.00 0.00 0.00 0.00 0.00 0.00 0.00 0.00 0.00 0.00 0.00 0.00 0.00 0.00 0.00 0.00 0.00 0.00 0.00 0.00 0.00 0.01
0.00 0.00 0.00 0.00 0.00 0.00 0.00 0.00 0.00 0.00 0.00 0.00 0.00 0.00 0.00 0.00 0.00 0.00 0.00 0.00 0.00 0.00 0.00 0.00 0.00 0.00 0.00 0.00 0.00 0.00 0.00 0.00
0.00 0.00 0.00 0.00 0.00 0.00 0.00 0.00 0.00 0.00 0.01 0.01 0.00 0.00 0.00 0.00 0.00 0.00 0.00 0.00 0.01 0.00 0.00 0.00 0.00 0.00 0.00 0.00 0.00 0.00 0.00 0.00
MSLP
1009.21 1008.89 1008.99 1009.31 1010.05 1010.61 1012.17 1013.17 1012.63 1011.71 1010.04 1008.95 1007.93 1007.04 1006.27 1006.15 1006.81 1006.86 1007.26 1007.46 1007.70 1008.18 1008.85 1009.71 1010.52 1011.22 1011.89 1012.83 1013.63 1014.32 1014.86 1015.45
1010.51 1009.90 1010.09 1010.55 1011.45 1012.05 1012.91 1014.15 1014.14 1012.97 1011.53 1010.88 1009.72 1008.95 1007.67 1007.21 1007.02 1007.19 1007.55 1007.71 1008.03 1008.07 1008.61 1008.99 1009.57 1010.22 1010.94 1011.64 1012.53 1012.97 1013.99 1014.77
1012.18 1012.95 1012.88 1012.75 1013.82 1014.31 1014.74 1014.89 1014.95 1014.25 1013.27 1011.86 1011.39 1010.39 1009.68 1008.88 1007.82 1007.05 1006.90 1007.36 1007.87 1007.94 1008.11 1008.62 1008.86 1009.64 1010.39 1011.26 1011.88 1012.74 1013.47 1014.05
1015.30 1015.00 1014.50 1014.93 1016.00 1016.21 1016.65 1016.85 1016.04 1014.99 1014.67 1012.98 1012.30 1011.36 1010.53 1009.81 1008.53 1006.96 1006.36 1007.20 1007.95 1008.31 1008.67 1009.14 1009.72 1010.08 1010.39 1010.84 1011.69 1012.23 1012.87 1013.60
1016.91 1016.38 1015.99 1016.67 1017.24 1017.15 1017.68 1017.74 1017.71 1016.87 1015.59 1013.74 1013.18 1012.46 1011.63 1010.71 1009.84 1008.63 1008.35 1008.69 1008.94 1009.39 1010.02 1010.21 1010.46 1010.68 1011.03 1011.52 1011.87 1011.87 1012.24 1013.12
1018.59 1018.61 1018.45 1018.35 1018.24 1018.07 1018.28 1018.73 1018.52 1017.36 1016.91 1015.59 1014.88 1014.15 1013.35 1012.73 1011.97 1011.31 1010.81 1010.69 1010.74 1010.87 1010.90 1010.93 1010.78 1010.66 1011.01 1011.34 1011.74 1012.16 1012.52 1012.91
1019.58 1019.19 1018.85 1018.84 1018.73 1018.75 1018.87 1018.69 1018.60 1017.73 1017.93 1017.36 1016.84 1016.01 1015.51 1014.77 1013.88 1013.13 1012.71 1012.35 1012.57 1012.45 1011.98 1011.65 1011.11 1010.68 1010.59 1010.55 1010.97 1011.56 1012.07 1012.33
1020.44 1019.68 1019.30 1018.98 1018.63 1018.51 1018.65 1018.44 1018.42 1018.29 1018.47 1018.44 1017.77 1017.10 1016.55 1016.02 1015.59 1015.00 1014.52 1014.12 1013.65 1013.41 1012.61 1012.27 1011.71 1011.31 1011.01 1010.59 1010.39 1010.88 1011.29 1011.59
1021.77 1020.58 1019.60 1019.43 1019.14 1018.96 1019.17 1019.11 1018.91 1018.92 1019.07 1019.11 1018.63 1018.32 1018.07 1017.40 1016.76 1016.31 1015.71 1015.18 1014.50 1013.99 1013.53 1013.41 1012.66 1012.08 1011.43 1010.81 1010.51 1010.21 1010.35 1010.83
1023.07 1022.05 1021.10 1019.67 1019.01 1018.90 1019.40 1019.88 1019.85 1019.73 1019.73 1019.82 1019.45 1019.21 1019.02 1018.51 1018.08 1017.20 1016.51 1015.98 1015.25 1014.55 1014.33 1013.88 1012.69 1012.20 1010.80 1010.67 1010.05 1010.01 1009.74 1009.71
1023.79 1023.24 1021.71 1020.03 1019.54 1019.92 1020.30 1020.72 1020.65 1020.56 1020.38 1020.31 1019.91 1019.18 1019.08 1018.86 1018.61 1018.13 1017.26 1016.37 1015.69 1014.88 1014.04 1013.40 1012.79 1012.31 1011.70 1010.87 1010.48 1010.56 1009.96 1009.89
1024.33 1023.93 1022.65 1020.82 1020.37 1020.39 1020.41 1021.21 1021.29 1021.35 1021.21 1021.06 1020.60 1020.45 1019.40 1018.92 1018.82 1018.37 1017.62 1016.60 1015.63 1014.94 1014.30 1013.39 1013.04 1013.07 1012.09 1011.52 1011.07 1011.22 1010.79 1010.34
1024.37 1023.86 1022.23 1021.29 1020.97 1020.55 1021.51 1022.33 1022.11 1022.26 1022.10 1021.85 1021.92 1021.45 1020.52 1020.00 1019.18 1018.61 1018.02 1016.86 1015.49 1014.88 1014.42 1013.95 1013.29 1012.91 1012.47 1012.18 1011.60 1011.71 1011.27 1010.88
1024.62 1024.02 1022.85 1021.75 1021.51 1021.77 1022.16 1022.09 1022.53 1022.69 1022.45 1022.09 1021.91 1021.73 1020.59 1019.93 1019.62 1018.73 1017.83 1016.77 1015.79 1015.16 1014.52 1013.84 1013.50 1012.85 1012.47 1011.61 1012.14 1012.14 1011.83 1011.32
1024.27 1023.05 1022.15 1021.87 1021.89 1022.06 1022.25 1022.44 1022.57 1022.70 1022.33 1021.72 1021.26 1021.25 1020.83 1019.85 1019.21 1018.35 1017.58 1016.62 1015.77 1015.18 1014.71 1014.16 1013.61 1012.45 1011.78 1012.00 1012.27 1011.62 1012.01 1011.43
1024.15 1022.64 1022.26 1022.12 1022.06 1022.13 1022.37 1022.47 1022.35 1022.19 1021.82 1021.36 1020.66 1020.69 1020.37 1019.74 1018.69 1018.13 1017.30 1016.53 1015.95 1015.18 1014.39 1013.67 1013.47 1012.77 1011.95 1011.50 1011.90 1012.23 1012.63 1011.47
1023.86 1022.76 1022.44 1022.12 1022.15 1022.23 1022.24 1022.23 1022.04 1021.42 1021.07 1020.62 1020.18 1019.93 1019.86 1019.21 1018.69 1017.97 1017.14 1016.01 1015.45 1015.11 1014.53 1013.89 1013.45 1012.99 1012.43 1012.24 1012.54 1012.38 1011.31 1010.28
1022.77 1022.24 1022.30 1022.11 1021.77 1021.81 1021.88 1021.70 1021.54 1021.07 1020.52 1020.06 1019.65 1019.22 1018.88 1018.45 1017.92 1017.42 1016.61 1015.72 1014.99 1014.33 1014.27 1013.91 1013.45 1012.96 1012.75 1012.59 1012.62 1012.02 1011.15 1009.44
1021.23 1021.35 1021.55 1021.40 1021.52 1021.47 1021.40 1021.15 1021.15 1020.62 1020.13 1019.60 1019.14 1018.70 1018.13 1017.51 1016.83 1016.12 1015.50 1014.99 1014.43 1013.94 1013.83 1013.71 1013.87 1013.75 1013.25 1012.86 1012.17 1011.61 1011.02 1010.03
Thickness
5709 5713 5716 5714 5696 5716 5679 5680 5687 5697 5728 5752 5764 5776 5790 5797 5799 5799 5803 5806 5810 5811 5810 5804 5802 5800 5800 5794 5791 5790 5789 5788
5689 5702 5702 5694 5701 5688 5677 5665 5672 5683 5705 5699 5727 5743 5768 5782 5789 5796 5795 5797 5801 5808 5807 5809 5810 5811 5810 5804 5798 5798 5793 5792
5670 5658 5662 5662 5654 5655 5663 5660 5649 5659 5677 5713 5716 5733 5742 5759 5779 5789 5800 5797 5796 5805 5809 5808 5813 5812 5809 5805 5804 5799 5797 5797
5637 5643 5657 5649 5639 5635 5632 5645 5643 5655 5659 5701 5709 5728 5743 5751 5767 5788 5804 5799 5792 5792 5795 5794 5797 5801 5802 5804 5800 5800 5799 5796
5614 5624 5631 5625 5629 5636 5622 5621 5623 5635 5652 5699 5702 5717 5731 5742 5754 5772 5782 5778 5777 5775 5774 5780 5783 5786 5787 5787 5790 5795 5797 5795
5594 5599 5604 5609 5615 5623 5614 5604 5613 5631 5642 5660 5678 5693 5708 5721 5733 5743 5753 5757 5759 5761 5765 5770 5775 5782 5782 5783 5786 5786 5786 5787
5592 5600 5605 5605 5605 5607 5608 5614 5612 5631 5631 5636 5653 5673 5683 5697 5712 5724 5731 5737 5737 5743 5752 5759 5767 5775 5780 5784 5786 5785 5784 5786
5578 5594 5596 5597 5602 5604 5605 5615 5620 5628 5626 5626 5640 5658 5669 5679 5690 5699 5707 5715 5722 5729 5740 5744 5753 5761 5766 5775 5782 5786 5785 5785
5566 5577 5587 5580 5584 5585 5591 5593 5602 5608 5612 5614 5620 5634 5642 5658 5672 5680 5689 5697 5707 5715 5723 5728 5737 5749 5756 5766 5774 5782 5788 5785
5541 5557 5557 5574 5582 5585 5579 5578 5584 5591 5596 5599 5604 5615 5624 5635 5644 5662 5674 5682 5692 5703 5707 5715 5730 5741 5756 5761 5769 5774 5781 5787
5528 5528 5550 5572 5568 5561 5563 5559 5567 5575 5582 5585 5589 5600 5611 5619 5628 5640 5655 5668 5679 5691 5701 5711 5719 5730 5742 5751 5756 5762 5773 5776
5511 5522 5532 5551 5550 5549 5545 5541 5551 5556 5559 5566 5572 5568 5596 5602 5612 5623 5637 5654 5668 5679 5689 5701 5709 5715 5732 5740 5748 5750 5760 5769
5504 5501 5529 5534 5527 5530 5520 5531 5525 5528 5533 5539 5540 5545 5555 5574 5592 5604 5615 5636 5655 5667 5676 5685 5697 5706 5715 5724 5734 5738 5748 5756
5512 5504 5506 5523 5521 5517 5506 5504 5503 5503 5508 5514 5516 5525 5539 5547 5566 5584 5598 5615 5637 5649 5661 5673 5681 5692 5702 5716 5714 5724 5731 5742
5503 5509 5512 5513 5506 5500 5496 5492 5491 5490 5492 5500 5510 5511 5521 5532 5543 5567 5584 5598 5616 5633 5644 5657 5668 5682 5695 5702 5698 5713 5716 5728
5490 5506 5502 5499 5493 5489 5484 5482 5482 5482 5486 5493 5501 5499 5501 5519 5537 5547 5566 5581 5593 5614 5630 5645 5656 5667 5682 5689 5694 5697 5701 5719
5480 5490 5491 5493 5487 5481 5477 5475 5477 5481 5482 5486 5491 5491 5490 5502 5516 5529 5546 5567 5578 5592 5612 5628 5641 5654 5661 5671 5675 5680 5700 5718
5477 5490 5487 5483 5484 5480 5474 5473 5470 5473 5474 5478 5481 5485 5489 5496 5504 5515 5532 5551 5567 5581 5592 5609 5619 5633 5644 5653 5662 5673 5688 5712
5500 5492 5485 5485 5481 5478 5474 5473 5467 5468 5466 5468 5470 5474 5480 5490 5500 5513 5525 5537 5554 5569 5577 5587 5594 5603 5618 5631 5649 5663 5675 5694